User: anonymous   Login
Location: Nantong Television Tower
(32.0188°N, 120.8512°E)
Time: 18:51:34
(UTC+08:00)
Language:

ATLAS 3B CENTAUR R/B - Orbit

View from above orbital plane
View from above orbital plane
View from above satellite
View from above satellite

Ground track
Ground track

The orbit data is extracted from the following two-line orbital elements,

1 28118U 03057B   17204.90929785 +.00068336 +00000-0 +10399-2 0  9998
2 28118 028.1154 033.4048 3040852 058.8244 327.5364 09.39216202124706
Epoch (UTC): 23 July 2017 21:49:23
Eccentricity: 0.3040852
inclination: 28.1154°
perigee height: 225 km
apogee height: 5996 km
right ascension of ascending node: 33.4048°
argument of perigee: 58.8244°
revolutions per day: 9.39216202
mean anomaly at epoch: 327.5364°
orbit number at epoch: 12470

The dashed part of the orbit path shows where the satellite is in the earth's shadow,  

DLR